Location: Newark
(55.7083°N, 13.1992°E)
Time: 06:42:57
(UTC+00:00)

N. Korean satellite - Pass Details

Date: 02 February 2020
Orbit: 456 x 505 km, 97.2° (Epoch: 27 February)

Event Time Altitude Azimuth Distance (km) Brightness Sun altitude
Rises 05:22:19 0° 12° (NNE) 2,562 10.3 -13.7°
Reaches altitude 10° 05:24:23 10° 11° (N) 1,685 9.3 -13.5°
Maximum altitude 05:28:00 73° 287° (WNW) 521 6.5 -13.0°
Drops below altitude 10° 05:31:38 10° 203° (SSW) 1,697 9.2 -12.4°
Sets 05:33:44 0° 201° (SSW) 2,582 10.2 -12.2°
